Retour au catalogue

GEESAT 6-11

ActifCommunicationsLEO
NORAD 65723·PAYLOAD·🇨🇳 China

Lancé Sep 24, 2025 depuis Yellow Sea Launch Area

Loading…

Prochains Passages (prochaines 24 heures)

TLE

FraisSource: Space-Track

Époque: Sep 14, 2026, 17:26 UTC

1 65723U 25214M   26257.72648048  .00001206  00000-0  17202-3 0  9992
2 65723  49.9827 252.9571 0009896 210.4771 149.5593 14.83585992 52804

Suivez GEESAT 6-11 en temps réel avec AllMySat

Download on the App Store